Defiance, OH

12:23 PM EST on November 13, 2019 (GMT -0500)
Defiance Memorial

Weather History for KDFI - September, 2019

Change the Weather History Date:

Friday, September 6, 2019

  Actual Average Record
Temperature  
Mean Temperature 63 °F -  
Max Temperature 73 °F 79 °F 95 °F (1954)
Min Temperature 54 °F 54 °F 40 °F (1962)
Degree Days  
Heating Degree Days 2    
Growing Degree Days 13 (Base 50)    
Moisture  
Dew Point 59 °F    
Average Humidity 82    
Maximum Humidity 93    
Minimum Humidity 64    
Precipitation  
Precipitation 0.00 in - - ()
Sea Level Pressure  
Sea Level Pressure 29.93 in    
Wind  
Wind Speed 3 mph (West)    
Max Wind Speed 10 mph    
Max Gust Speed -    
Visibility 10 miles    
Events Rain    
Averages and records for this station are not official NWS values.
T = Trace of Precipitation, MM = Missing Value Source: NWS Daily Summary

Daily Weather History Graph

Daily Weather History Graph

Search for Another Location

Airport or City:

Astronomy

Sep. 06, 2019 Rise Set
Actual Time 7:08 AM EDT 8:02 PM EDT
Civil Twilight 6:40 AM EDT 8:30 PM EDT
Nautical Twilight 6:07 AM EDT 9:04 PM EDT
Astronomical Twilight 5:32 AM EDT 9:38 PM EDT
Moon 3:21 PM EDT (9/6) 12:14 AM EDT (9/6)
Length of Visible Light 13h 49m
Length of Day
12h 53m
First Quarter, 55% of the Moon is Illuminated
Sep 6
First Quarter
Sep 14
Full
Sep 21
Last Quarter
Sep 28
New
Oct 5
First Quarter

Hourly Weather History & Observations

Time (EDT) Temp. Dew Point Humidity Pressure Visibility Wind Dir Wind Speed Gust Speed Precip Events Conditions
12:53 AM 59.0 °F 54.0 °F 83% 30.05 in 10.0 mi Calm Calm - N/A   Clear
1:53 AM 57.0 °F 54.0 °F 89% 30.02 in 10.0 mi Calm Calm - N/A   Clear
2:53 AM 57.0 °F 53.1 °F 87% 30.01 in 10.0 mi Calm Calm - N/A   Clear
3:53 AM 55.0 °F 52.0 °F 89% 29.99 in 8.0 mi Calm Calm - N/A   Clear
5:53 AM 54.0 °F 51.1 °F 90% 29.98 in 10.0 mi Calm Calm - N/A   Clear
6:53 AM 54.0 °F 51.1 °F 90% 29.98 in 10.0 mi Calm Calm - N/A   Clear
7:53 AM 55.0 °F 53.1 °F 93% 29.97 in 10.0 mi Calm Calm - N/A   Clear
8:53 AM 60.1 °F 55.0 °F 83% 29.96 in 10.0 mi SSW 5.8 mph - N/A   Overcast
9:53 AM 63.0 °F 55.0 °F 75% 29.94 in 10.0 mi South 6.9 mph - N/A   Overcast
10:53 AM 64.9 °F 55.9 °F 73% 29.93 in 10.0 mi South 4.6 mph - N/A   Overcast
11:53 AM 68.0 °F 57.9 °F 70% 29.91 in 10.0 mi SSW 9.2 mph - 0.00 in   Overcast
12:53 PM 69.1 °F 57.9 °F 68% 29.89 in 10.0 mi SSW 6.9 mph - N/A   Overcast
1:53 PM 70.0 °F 57.9 °F 65% 29.88 in 10.0 mi SW 6.9 mph - N/A   Overcast
2:53 PM 72.0 °F 59.0 °F 64% 29.86 in 10.0 mi SSW 10.4 mph - N/A   Overcast
3:39 PM 71.1 °F 60.1 °F 68% 29.87 in 10.0 mi WSW 5.8 mph - N/A   Overcast
3:53 PM 71.1 °F 60.1 °F 68% 29.86 in 10.0 mi Variable 4.6 mph - N/A   Overcast
4:53 PM 71.1 °F 61.0 °F 70% 29.87 in 10.0 mi Variable 4.6 mph - N/A   Overcast
5:53 PM 70.0 °F 62.1 °F 76% 29.88 in 10.0 mi WNW 5.8 mph - N/A   Overcast
6:53 PM 69.1 °F 63.0 °F 81% 29.89 in 10.0 mi NW 6.9 mph - 0.00 in Rain Light Rain
7:53 PM 69.1 °F 63.0 °F 81% 29.90 in 10.0 mi WNW 3.5 mph - 0.00 in   Overcast
8:51 PM 68.0 °F 64.4 °F 88% 29.91 in 8.0 mi Variable 4.6 mph - N/A   Overcast
8:53 PM 68.0 °F 64.0 °F 87% 29.91 in 8.0 mi WNW 5.8 mph - N/A   Overcast
9:00 PM 66.9 °F 64.0 °F 90% 29.91 in 6.0 mi West 6.9 mph - N/A   Overcast
9:33 PM 66.0 °F 64.0 °F 93% 29.92 in 8.0 mi WNW 6.9 mph - 0.00 in   Overcast
9:48 PM 66.2 °F 62.6 °F 88% 29.93 in 9.0 mi WNW 8.1 mph - 0.00 in   Overcast
9:53 PM 66.0 °F 63.0 °F 90% 29.93 in 9.0 mi WNW 8.1 mph - 0.00 in   Overcast
10:30 PM 66.0 °F 63.0 °F 90% 29.94 in 9.0 mi WNW 8.1 mph - N/A   Overcast
10:48 PM 66.2 °F 62.6 °F 88% 29.94 in 9.0 mi WNW 5.8 mph - N/A   Overcast
10:53 PM 66.0 °F 63.0 °F 90% 29.94 in 9.0 mi WNW 5.8 mph - N/A   Overcast
11:20 PM 66.0 °F 63.0 °F 90% 29.94 in 10.0 mi WNW 6.9 mph - N/A   Overcast
11:53 PM 66.0 °F 63.0 °F 90% 29.94 in 10.0 mi NW 5.8 mph - N/A   Overcast